• In Netherlands
  • List of Countries
  • For 7 days
  • Water Temperature
  • Satellite Maps
  • Weather Map
  • Weather Widgets
  • user-avatar
    Login

    Hourly Weather Shkoder

    Today, 23 October, Monday

    Time Temperature Precipitation Wind Pressure Humidity
    00:00 +16°C° 1.7 mm 3 mps 734 mmHg 88%
    01:00 +16°C° 0 mm 5 mps 733 mmHg 88%
    02:00 +15°C° 2.2 mm 4 mps 733 mmHg 89%
    03:00 +15°C° 2.2 mm 4 mps 733 mmHg 89%
    04:00 +15°C° 2.2 mm 4 mps 732 mmHg 90%
    05:00 +15°C° 0.7 mm 4 mps 732 mmHg 90%
    06:00 +15°C° 0.7 mm 4 mps 732 mmHg 90%
    07:00 +16°C° 0 mm 3 mps 731 mmHg 92%
    08:00 +16°C° 0.7 mm 3 mps 731 mmHg 87%
    09:00 +17°C° 0.7 mm 3 mps 731 mmHg 82%
    10:00 +17°C° 0.7 mm 3 mps 731 mmHg 78%
    11:00 +17°C° 0.9 mm 3 mps 731 mmHg 75%
    12:00 +17°C° 0.9 mm 3 mps 731 mmHg 72%
    13:00 +16°C° 0 mm 3 mps 731 mmHg 74%
    14:00 +16°C° 0.6 mm 3 mps 731 mmHg 75%
    15:00 +14°C° 0.6 mm 3 mps 731 mmHg 77%
    16:00 +13°C° 0.6 mm 3 mps 731 mmHg 78%
    17:00 +12°C° 0.6 mm 3 mps 731 mmHg 79%
    18:00 +12°C° 0.6 mm 3 mps 731 mmHg 80%
    19:00 +11°C° 0.6 mm 3 mps 731 mmHg 82%
    20:00 +10°C° 0.3 mm 3 mps 731 mmHg 81%
    21:00 +10°C° 0.3 mm 3 mps 731 mmHg 80%
    22:00 +10°C° 0.3 mm 3 mps 731 mmHg 79%
    23:00 +9°C° 0.1 mm 3 mps 731 mmHg 79%

    Tomorrow, 24 October, Tuesday

    Time Temperature Precipitation Wind Pressure Humidity
    00:00 +9°C° 0.1 mm 3 mps 731 mmHg 79%
    01:00 +9°C° 0.1 mm 3 mps 731 mmHg 79%
    02:00 +9°C° 0.1 mm 3 mps 731 mmHg 79%
    03:00 +9°C° 0.1 mm 3 mps 731 mmHg 80%
    04:00 +9°C° 0.1 mm 3 mps 731 mmHg 80%
    05:00 +9°C° 0.3 mm 3 mps 731 mmHg 80%
    06:00 +9°C° 0.3 mm 3 mps 731 mmHg 80%
    07:00 +9°C° 0.3 mm 3 mps 732 mmHg 80%
    08:00 +10°C° 0.4 mm 3 mps 732 mmHg 77%
    09:00 +11°C° 0.4 mm 3 mps 732 mmHg 74%
    10:00 +12°C° 0.4 mm 3 mps 732 mmHg 71%
    11:00 +12°C° 0.6 mm 3 mps 732 mmHg 72%
    12:00 +12°C° 0.6 mm 3 mps 733 mmHg 73%
    13:00 +12°C° 0.6 mm 2 mps 733 mmHg 74%
    14:00 +11°C° 0.5 mm 3 mps 733 mmHg 75%
    15:00 +11°C° 0.5 mm 3 mps 733 mmHg 76%
    16:00 +11°C° 0.5 mm 3 mps 733 mmHg 77%
    17:00 +10°C° 0.1 mm 3 mps 734 mmHg 78%
    18:00 +10°C° 0.1 mm 3 mps 734 mmHg 78%
    19:00 +9°C° 0.1 mm 3 mps 735 mmHg 79%
    20:00 +9°C° 0 mm 3 mps 735 mmHg 80%
    21:00 +9°C° 0 mm 3 mps 736 mmHg 81%
    22:00 +9°C° 0 mm 3 mps 736 mmHg 82%
    23:00 +9°C° 0 mm 3 mps 737 mmHg 83%

    Day after tomorrow, 25 October, Wednesday

    Time Temperature Precipitation Wind Pressure Humidity
    00:00 +8°C° 0 mm 4 mps 737 mmHg 83%
    01:00 +8°C° 0 mm 4 mps 738 mmHg 84%
    02:00 +8°C° 0.1 mm 4 mps 738 mmHg 84%
    03:00 +10°C° 0.1 mm 4 mps 739 mmHg 85%
    04:00 +10°C° 0.1 mm 4 mps 739 mmHg 85%
    05:00 +10°C° 0 mm 4 mps 739 mmHg 84%
    06:00 +10°C° 0 mm 4 mps 740 mmHg 84%
    07:00 +11°C° 0 mm 4 mps 740 mmHg 84%
    08:00 +12°C° 0 mm 4 mps 741 mmHg 78%
    09:00 +13°C° 0 mm 5 mps 741 mmHg 73%
    10:00 +15°C° 0 mm 5 mps 742 mmHg 68%
    11:00 +15°C° 0 mm 5 mps 742 mmHg 67%
    12:00 +15°C° 0 mm 5 mps 742 mmHg 66%
    13:00 +16°C° 0 mm 5 mps 742 mmHg 65%
    14:00 +15°C° 0 mm 5 mps 743 mmHg 67%
    15:00 +14°C° 0 mm 5 mps 743 mmHg 70%
    16:00 +14°C° 0 mm 5 mps 743 mmHg 72%
    17:00 +13°C° 0 mm 5 mps 744 mmHg 75%
    18:00 +12°C° 0 mm 5 mps 745 mmHg 77%
    19:00 +12°C° 0 mm 5 mps 745 mmHg 79%
    20:00 +10°C° 0 mm 5 mps 746 mmHg 80%
    21:00 +11°C° 0 mm 4 mps 746 mmHg 81%
    22:00 +11°C° 0 mm 4 mps 747 mmHg 82%
    23:00 +11°C° 0 mm 4 mps 747 mmHg 82%

    26 October, Thursday

    Time Temperature Precipitation Wind Pressure Humidity
    00:00 +10°C° 0 mm 4 mps 747 mmHg 83%
    01:00 +10°C° 0 mm 4 mps 747 mmHg 83%
    02:00 +10°C° 0 mm 3 mps 747 mmHg 83%
    03:00 +10°C° 0 mm 3 mps 747 mmHg 84%
    04:00 +10°C° 0 mm 3 mps 747 mmHg 84%
    05:00 +10°C° 0 mm 3 mps 747 mmHg 83%
    06:00 +10°C° 0 mm 3 mps 748 mmHg 82%
    07:00 +10°C° 0 mm 3 mps 748 mmHg 81%
    08:00 +12°C° 0 mm 3 mps 748 mmHg 74%
    09:00 +16°C° 0 mm 3 mps 748 mmHg 67%
    10:00 +18°C° 0 mm 2 mps 748 mmHg 60%
    11:00 +19°C° 0 mm 2 mps 747 mmHg 58%
    12:00 +20°C° 0 mm 2 mps 747 mmHg 55%
    13:00 +21°C° 0 mm 2 mps 747 mmHg 52%
    14:00 +20°C° 0 mm 2 mps 746 mmHg 56%
    15:00 +19°C° 0 mm 2 mps 746 mmHg 60%
    16:00 +18°C° 0 mm 2 mps 746 mmHg 64%
    17:00 +17°C° 0 mm 2 mps 746 mmHg 66%
    18:00 +16°C° 0 mm 2 mps 746 mmHg 68%
    19:00 +14°C° 0 mm 2 mps 747 mmHg 70%
    20:00 +14°C° 0 mm 2 mps 747 mmHg 68%
    21:00 +14°C° 0 mm 2 mps 747 mmHg 65%
    22:00 +14°C° 0 mm 2 mps 747 mmHg 63%
    23:00 +14°C° 0 mm 2 mps 747 mmHg 61%

    27 October, Friday

    Time Temperature Precipitation Wind Pressure Humidity
    00:00 +14°C° 0 mm 2 mps 746 mmHg 59%
    01:00 +14°C° 0 mm 2 mps 746 mmHg 57%
    02:00 +13°C° 0 mm 2 mps 746 mmHg 56%
    03:00 +13°C° 0 mm 2 mps 745 mmHg 54%
    04:00 +13°C° 0 mm 2 mps 745 mmHg 53%
    05:00 +14°C° 0 mm 2 mps 745 mmHg 52%
    06:00 +14°C° 0 mm 1 mps 745 mmHg 52%
    07:00 +14°C° 0 mm 1 mps 744 mmHg 52%
    08:00 +16°C° 0 mm 1 mps 744 mmHg 48%
    09:00 +20°C° 0 mm 1 mps 744 mmHg 44%
    10:00 +20°C° 0 mm 0 mps 744 mmHg 40%
    11:00 +22°C° 0 mm 1 mps 743 mmHg 40%
    12:00 +23°C° 0 mm 1 mps 742 mmHg 41%
    13:00 +23°C° 0 mm 2 mps 742 mmHg 42%
    14:00 +21°C° 0 mm 2 mps 741 mmHg 48%
    15:00 +20°C° 0 mm 2 mps 741 mmHg 55%
    16:00 +20°C° 0 mm 1 mps 740 mmHg 62%
    17:00 +18°C° 0 mm 1 mps 740 mmHg 66%
    18:00 +16°C° 0 mm 1 mps 739 mmHg 70%
    19:00 +15°C° 0 mm 1 mps 739 mmHg 74%
    20:00 +15°C° 0 mm 1 mps 739 mmHg 74%
    21:00 +14°C° 0 mm 1 mps 739 mmHg 73%
    22:00 +14°C° 0 mm 1 mps 738 mmHg 72%
    23:00 +14°C° 0 mm 1 mps 738 mmHg 72%

    28 October, Saturday

    Time Temperature Precipitation Wind Pressure Humidity
    00:00 +14°C° 0 mm 1 mps 737 mmHg 71%
    01:00 +13°C° 0 mm 1 mps 737 mmHg 71%
    02:00 +13°C° 0 mm 1 mps 737 mmHg 71%
    03:00 +13°C° 0 mm 1 mps 736 mmHg 70%
    04:00 +13°C° 0 mm 1 mps 736 mmHg 70%
    05:00 +13°C° 0 mm 2 mps 736 mmHg 69%
    06:00 +13°C° 0 mm 2 mps 737 mmHg 69%
    07:00 +14°C° 0 mm 2 mps 737 mmHg 68%
    08:00 +14°C° 0.2 mm 2 mps 737 mmHg 66%
    09:00 +14°C° 0.2 mm 3 mps 737 mmHg 65%
    10:00 +16°C° 0.2 mm 3 mps 737 mmHg 63%
    11:00 +16°C° 0 mm 3 mps 737 mmHg 60%
    12:00 +17°C° 0 mm 3 mps 737 mmHg 57%
    13:00 +17°C° 0 mm 4 mps 736 mmHg 53%
    14:00 +15°C° 0 mm 4 mps 736 mmHg 55%
    15:00 +14°C° 0 mm 4 mps 736 mmHg 57%
    16:00 +14°C° 0 mm 4 mps 736 mmHg 59%
    17:00 +12°C° 0 mm 4 mps 736 mmHg 62%
    18:00 +11°C° 0 mm 4 mps 736 mmHg 66%
    19:00 +10°C° 0 mm 4 mps 737 mmHg 69%
    20:00 +10°C° 0 mm 4 mps 737 mmHg 70%
    21:00 +8°C° 0 mm 4 mps 737 mmHg 71%
    22:00 +8°C° 0 mm 4 mps 737 mmHg 72%
    23:00 +8°C° 0 mm 4 mps 736 mmHg 72%

    29 October, Sunday

    Time Temperature Precipitation Wind Pressure Humidity
    00:00 +8°C° 0 mm 4 mps 736 mmHg 73%
    01:00 +8°C° 0 mm 4 mps 736 mmHg 73%
    02:00 +7°C° 0 mm 4 mps 736 mmHg 74%
    03:00 +7°C° 0 mm 4 mps 735 mmHg 74%
    04:00 +7°C° 0 mm 4 mps 735 mmHg 75%
    05:00 +7°C° 0 mm 4 mps 735 mmHg 75%
    06:00 +7°C° 0 mm 4 mps 735 mmHg 76%
    07:00 +7°C° 0 mm 4 mps 735 mmHg 76%
    08:00 +8°C° 0 mm 4 mps 735 mmHg 68%
    09:00 +11°C° 0 mm 4 mps 735 mmHg 60%
    10:00 +12°C° 0 mm 4 mps 735 mmHg 52%
    11:00 +13°C° 0 mm 4 mps 735 mmHg 50%
    12:00 +13°C° 0 mm 4 mps 735 mmHg 48%
    13:00 +14°C° 0 mm 4 mps 735 mmHg 46%
    14:00 +13°C° 0 mm 4 mps 735 mmHg 49%
    15:00 +12°C° 0 mm 3 mps 735 mmHg 52%
    16:00 +12°C° 0 mm 3 mps 735 mmHg 54%
    17:00 +11°C° 0 mm 3 mps 736 mmHg 59%
    18:00 +9°C° 0 mm 3 mps 736 mmHg 63%
    19:00 +8°C° 0 mm 3 mps 737 mmHg 68%
    20:00 +8°C° 0 mm 3 mps 737 mmHg 69%
    21:00 +7°C° 0 mm 3 mps 738 mmHg 70%
    22:00 +7°C° 0 mm 3 mps 738 mmHg 71%
    23:00 +7°C° 0 mm 3 mps 738 mmHg 71%
    Show more